sat.trackr.live / text

‹ back to catalog

ONEWEB-0345

NORAD 49211 · 2021-083AB

PAYLOAD ACTIVE UNKNOWN

§ Identity

Operator
Country
UK
Launch date
2021-09-14
Launch site
TYMSC
Launch vehicle
Mass (kg)
RCS (m²)

Purposes: comms

External: N2YO · Heavens-Above · Gunter

§ Orbital elements

Epoch: 2026-05-24T22:52:53.424768Z

Period
109.63 min
Inclination
87.8947°
Eccentricity
0.0001697
Mean motion
13.13468923 rev/d
Perigee alt
1,208.5 km
Apogee alt
1,211.1 km
Semi-major
7,587.9 km
B*
9.4230e-4
RAAN
324.8490°
Arg perigee
102.3095°
Mean anomaly
257.8224°
Rev number
22,785

§ Raw data

ONEWEB-03451 49211U 21083AB  26144.95339612  .00000357  00000+0  94230-3 0  99912 49211  87.8947 324.8490 0001697 102.3095 257.8224 13.13468923227859

JSON: /api/v1/satellites/49211 · /tle

For live sub-satellite position, see the globe view (requires WebGL).

§ Visibility from observer

Set your observer location to see the next 7 days of passes ≥ 10°. The values pass through the URL so the page stays shareable.

No JS? Fill the form by hand. The geolocation button needs JavaScript.